This is the latest recevied weather packets stored in our database for station/object HB9MZI. If no packets are shown the sender has not sent any weather packets the latest 10 day(s).
| Time | Temp. | Humidity | Pressure | Rain* | Wind** | Luminosity | Snow |
|---|---|---|---|---|---|---|---|
| 1778046506 | 12.22° C | 100% | 985.1 hPa | 2.79 mm | 0 m/s | - | - |
| 1778045899 | 12.22° C | 100% | 985.1 hPa | 2.79 mm | 0 m/s | - | - |
| 1778045596 | 12.22° C | 100% | 985.2 hPa | 2.79 mm | 0 m/s | - | - |
| 1778045293 | 12.22° C | 100% | 985.1 hPa | 2.79 mm | 0 m/s | - | - |
| 1778044386 | 12.22° C | 100% | 985.4 hPa | 2.79 mm | 0 m/s | - | - |
| 1778044084 | 12.22° C | 100% | 985.5 hPa | 2.79 mm | 0 m/s | - | - |
| 1778043479 | 12.22° C | 100% | 985.6 hPa | 2.79 mm | 0 m/s | - | - |
| 1778042874 | 12.22° C | 100% | 985.5 hPa | 4.83 mm | 0 m/s | - | - |
| 1778035920 | 12.22° C | 100% | 986.5 hPa | 1.52 mm | 0 m/s | - | - |
| 1778034105 | 12.22° C | 100% | 986.9 hPa | 1.52 mm | 0 m/s | - | - |
| 1778032593 | 12.22° C | 100% | 986.8 hPa | 1.52 mm | 0 m/s | - | - |
| 1778032291 | 12.22° C | 100% | 986.9 hPa | 0 mm | 0 m/s | - | - |
| 1778031385 | 12.22° C | 100% | 987 hPa | 0 mm | 0 m/s | - | - |
| 1778031081 | 12.22° C | 100% | 986.9 hPa | 0 mm | 0 m/s | - | - |
| 1778030175 | 12.22° C | 100% | 987.2 hPa | 0 mm | 0 m/s | - | - |
| 1778029570 | 12.22° C | 100% | 987.3 hPa | 0 mm | 0 m/s | - | - |
| 1778028965 | 12.22° C | 100% | 987.4 hPa | 0 mm | 0 m/s | - | - |
| 1778028360 | 12.22° C | 100% | 987.4 hPa | 1.02 mm | 0 m/s | - | - |
| 1778027755 | 12.22° C | 100% | 987.5 hPa | 1.02 mm | 0 m/s | - | - |
| 1778027453 | 12.22° C | 100% | 987.5 hPa | 1.02 mm | 0 m/s | - | - |
| 1778027151 | 12.22° C | 100% | 987.6 hPa | 1.02 mm | 0 m/s | - | - |
| 1778026546 | 12.22° C | 100% | 987.8 hPa | 1.02 mm | 0 m/s | - | - |
| 1778008100 | 12.22° C | 100% | 988.9 hPa | 0 mm | 0 m/s | - | - |
| 1777834478 | 8.89° C | 100% | 992 hPa | 0 mm | 0 m/s | - | - |
| 1777829712 | 21.11° C | 59% | 992.3 hPa | 0 mm | 0 m/s | - | - |
* Rain latest hour (hover to see other rain measurements)
** Current wind speed in m/s (hover to see current wind gust speed)